When you browse on this site, cookies collect data to enhance your experience and personalize the content and advertising you see.
Visit our Privacy Policy to learn more. By continuing to use the site, you agree to this use of cookies and data.
  • In United Kingdom
  • List of Countries
  • For 7 days
  • Water Temperature
  • Satellite Maps
  • Weather Map
  • Weather Widgets
  • user-avatar
    Login

    Hourly Weather Natal

    Today, 24 January, Thursday

    Time Temperature Precipitation Wind Pressure Humidity
    00:00 +29°C° 0 mm 5 mps 759 mmHg 78%
    01:00 +28°C° 0 mm 4 mps 759 mmHg 79%
    02:00 +28°C° 0.1 mm 4 mps 759 mmHg 80%
    03:00 +28°C° 0.1 mm 4 mps 759 mmHg 80%
    04:00 +28°C° 0.1 mm 4 mps 759 mmHg 80%
    05:00 +28°C° 0 mm 4 mps 759 mmHg 79%
    06:00 +28°C° 0 mm 4 mps 759 mmHg 79%
    07:00 +28°C° 0 mm 4 mps 759 mmHg 78%
    08:00 +30°C° 0 mm 5 mps 759 mmHg 71%
    09:00 +32°C° 0 mm 5 mps 759 mmHg 64%
    10:00 +33°C° 0 mm 5 mps 760 mmHg 57%
    11:00 +34°C° 0 mm 5 mps 759 mmHg 55%
    12:00 +35°C° 0 mm 6 mps 759 mmHg 53%
    13:00 +35°C° 0 mm 6 mps 759 mmHg 52%
    14:00 +35°C° 0 mm 6 mps 758 mmHg 52%
    15:00 +35°C° 0 mm 6 mps 758 mmHg 53%
    16:00 +34°C° 0 mm 7 mps 757 mmHg 53%
    17:00 +33°C° 0 mm 6 mps 757 mmHg 58%
    18:00 +32°C° 0 mm 6 mps 758 mmHg 64%
    19:00 +30°C° 0 mm 5 mps 758 mmHg 69%
    20:00 +29°C° 0 mm 5 mps 758 mmHg 71%
    21:00 +29°C° 0 mm 5 mps 759 mmHg 74%
    22:00 +29°C° 0 mm 4 mps 759 mmHg 76%
    23:00 +29°C° 0 mm 4 mps 759 mmHg 77%

    Tomorrow, 25 January, Friday

    Time Temperature Precipitation Wind Pressure Humidity
    00:00 +28°C° 0 mm 4 mps 759 mmHg 77%
    01:00 +28°C° 0 mm 4 mps 759 mmHg 78%
    02:00 +28°C° 0 mm 4 mps 759 mmHg 79%
    03:00 +28°C° 0 mm 4 mps 758 mmHg 80%
    04:00 +28°C° 0 mm 4 mps 758 mmHg 80%
    05:00 +28°C° 0.1 mm 4 mps 758 mmHg 81%
    06:00 +28°C° 0.1 mm 4 mps 758 mmHg 82%
    07:00 +28°C° 0.1 mm 4 mps 759 mmHg 83%
    08:00 +29°C° 0 mm 5 mps 759 mmHg 75%
    09:00 +32°C° 0 mm 5 mps 759 mmHg 67%
    10:00 +33°C° 0 mm 6 mps 760 mmHg 59%
    11:00 +34°C° 0 mm 6 mps 759 mmHg 56%
    12:00 +35°C° 0 mm 5 mps 759 mmHg 52%
    13:00 +35°C° 0 mm 5 mps 759 mmHg 49%
    14:00 +35°C° 0 mm 5 mps 758 mmHg 49%
    15:00 +34°C° 0 mm 5 mps 757 mmHg 49%
    16:00 +34°C° 0 mm 5 mps 757 mmHg 49%
    17:00 +33°C° 0 mm 5 mps 757 mmHg 56%
    18:00 +32°C° 0 mm 5 mps 757 mmHg 62%
    19:00 +30°C° 0 mm 4 mps 758 mmHg 69%
    20:00 +29°C° 0 mm 4 mps 758 mmHg 71%
    21:00 +29°C° 0 mm 4 mps 759 mmHg 74%
    22:00 +29°C° 0 mm 3 mps 760 mmHg 76%
    23:00 +29°C° 0.3 mm 3 mps 759 mmHg 77%

    Day after tomorrow, 26 January, Saturday

    Time Temperature Precipitation Wind Pressure Humidity
    00:00 +29°C° 0.3 mm 4 mps 759 mmHg 77%
    01:00 +29°C° 0.3 mm 4 mps 759 mmHg 78%
    02:00 +28°C° 0.1 mm 4 mps 759 mmHg 79%
    03:00 +28°C° 0.1 mm 3 mps 758 mmHg 79%
    04:00 +28°C° 0.1 mm 3 mps 758 mmHg 80%
    05:00 +28°C° 0.3 mm 3 mps 758 mmHg 81%
    06:00 +28°C° 0.3 mm 3 mps 759 mmHg 81%
    07:00 +28°C° 0.3 mm 3 mps 759 mmHg 82%
    08:00 +29°C° 0.4 mm 3 mps 759 mmHg 76%
    09:00 +30°C° 0.4 mm 3 mps 760 mmHg 69%
    10:00 +33°C° 0.4 mm 3 mps 760 mmHg 62%
    11:00 +33°C° 0.1 mm 4 mps 760 mmHg 59%
    12:00 +34°C° 0.1 mm 4 mps 759 mmHg 56%
    13:00 +35°C° 0.1 mm 4 mps 759 mmHg 53%
    14:00 +34°C° 0 mm 5 mps 758 mmHg 53%
    15:00 +34°C° 0 mm 5 mps 758 mmHg 53%
    16:00 +34°C° 0 mm 5 mps 757 mmHg 53%
    17:00 +33°C° 0 mm 4 mps 758 mmHg 59%
    18:00 +32°C° 0 mm 4 mps 758 mmHg 65%
    19:00 +30°C° 0 mm 4 mps 758 mmHg 71%
    20:00 +29°C° 0 mm 3 mps 759 mmHg 73%
    21:00 +29°C° 0 mm 3 mps 759 mmHg 76%
    22:00 +29°C° 0 mm 3 mps 760 mmHg 78%
    23:00 +28°C° 0.5 mm 3 mps 760 mmHg 79%

    27 January, Sunday

    Time Temperature Precipitation Wind Pressure Humidity
    00:00 +28°C° 0.5 mm 3 mps 760 mmHg 80%
    01:00 +28°C° 0.5 mm 3 mps 759 mmHg 81%
    02:00 +28°C° 0.1 mm 3 mps 759 mmHg 81%
    03:00 +28°C° 0.1 mm 3 mps 759 mmHg 82%
    04:00 +27°C° 0.1 mm 3 mps 758 mmHg 83%
    05:00 +27°C° 0.1 mm 3 mps 758 mmHg 83%
    06:00 +27°C° 0.1 mm 3 mps 759 mmHg 84%
    07:00 +27°C° 0.1 mm 3 mps 759 mmHg 84%
    08:00 +29°C° 0.2 mm 4 mps 759 mmHg 77%
    09:00 +30°C° 0.2 mm 4 mps 760 mmHg 71%
    10:00 +32°C° 0.2 mm 4 mps 760 mmHg 64%
    11:00 +33°C° 0.1 mm 5 mps 760 mmHg 61%
    12:00 +34°C° 0.1 mm 5 mps 759 mmHg 57%
    13:00 +35°C° 0.1 mm 5 mps 759 mmHg 53%
    14:00 +35°C° 0 mm 5 mps 758 mmHg 54%
    15:00 +35°C° 0 mm 5 mps 758 mmHg 55%
    16:00 +34°C° 0 mm 5 mps 757 mmHg 56%
    17:00 +33°C° 0.2 mm 5 mps 758 mmHg 62%
    18:00 +32°C° 0.2 mm 5 mps 758 mmHg 67%
    19:00 +30°C° 0.2 mm 4 mps 758 mmHg 73%
    20:00 +29°C° 0.3 mm 4 mps 759 mmHg 75%
    21:00 +29°C° 0.3 mm 4 mps 759 mmHg 78%
    22:00 +28°C° 0.3 mm 4 mps 760 mmHg 80%
    23:00 +28°C° 0.6 mm 4 mps 760 mmHg 81%

    28 January, Monday

    Time Temperature Precipitation Wind Pressure Humidity
    00:00 +28°C° 0.6 mm 3 mps 759 mmHg 82%
    01:00 +28°C° 0.6 mm 3 mps 759 mmHg 82%
    02:00 +28°C° 0.1 mm 3 mps 759 mmHg 83%
    03:00 +27°C° 0.1 mm 3 mps 759 mmHg 83%
    04:00 +27°C° 0.1 mm 3 mps 758 mmHg 84%
    05:00 +27°C° 0.2 mm 3 mps 759 mmHg 84%
    06:00 +27°C° 0.2 mm 3 mps 759 mmHg 84%
    07:00 +27°C° 0.2 mm 3 mps 759 mmHg 83%
    08:00 +29°C° 0 mm 4 mps 759 mmHg 76%
    09:00 +30°C° 0 mm 4 mps 760 mmHg 68%
    10:00 +33°C° 0 mm 4 mps 760 mmHg 61%
    11:00 +33°C° 0 mm 5 mps 760 mmHg 57%
    12:00 +34°C° 0 mm 5 mps 759 mmHg 54%
    13:00 +35°C° 0 mm 5 mps 759 mmHg 51%
    14:00 +35°C° 0 mm 5 mps 758 mmHg 52%
    15:00 +35°C° 0 mm 5 mps 758 mmHg 53%
    16:00 +34°C° 0 mm 5 mps 757 mmHg 54%
    17:00 +33°C° 0 mm 5 mps 757 mmHg 59%
    18:00 +32°C° 0 mm 5 mps 758 mmHg 65%
    19:00 +30°C° 0 mm 4 mps 758 mmHg 70%
    20:00 +30°C° 0 mm 4 mps 759 mmHg 72%
    21:00 +29°C° 0 mm 4 mps 759 mmHg 74%
    22:00 +29°C° 0 mm 4 mps 759 mmHg 76%
    23:00 +29°C° 0 mm 4 mps 759 mmHg 78%

    29 January, Tuesday

    Time Temperature Precipitation Wind Pressure Humidity
    00:00 +29°C° 0 mm 4 mps 759 mmHg 79%
    01:00 +28°C° 0 mm 4 mps 759 mmHg 80%
    02:00 +28°C° 0.6 mm 3 mps 759 mmHg 81%
    03:00 +28°C° 0.6 mm 3 mps 758 mmHg 82%
    04:00 +27°C° 0.6 mm 3 mps 758 mmHg 83%
    05:00 +27°C° 0.1 mm 3 mps 758 mmHg 83%
    06:00 +27°C° 0.1 mm 3 mps 758 mmHg 83%
    07:00 +27°C° 0.1 mm 3 mps 759 mmHg 83%
    08:00 +29°C° 0 mm 3 mps 759 mmHg 76%
    09:00 +30°C° 0 mm 3 mps 759 mmHg 69%
    10:00 +33°C° 0 mm 4 mps 759 mmHg 63%
    11:00 +33°C° 0 mm 4 mps 759 mmHg 60%
    12:00 +34°C° 0 mm 4 mps 758 mmHg 57%
    13:00 +35°C° 0 mm 4 mps 758 mmHg 54%
    14:00 +35°C° 0 mm 5 mps 757 mmHg 55%
    15:00 +35°C° 0 mm 5 mps 757 mmHg 55%
    16:00 +35°C° 0 mm 5 mps 756 mmHg 56%
    17:00 +33°C° 0 mm 5 mps 757 mmHg 61%
    18:00 +32°C° 0 mm 5 mps 757 mmHg 66%
    19:00 +30°C° 0 mm 5 mps 757 mmHg 71%
    20:00 +30°C° 0 mm 4 mps 758 mmHg 72%
    21:00 +29°C° 0 mm 4 mps 758 mmHg 74%
    22:00 +29°C° 0 mm 4 mps 759 mmHg 75%
    23:00 +29°C° 0 mm 4 mps 758 mmHg 76%
    Show more